Time,TemperatureF,DewpointF,PressureIn,WindDirection,WindDirectionDegrees,WindSpeedMPH,WindSpeedGustMPH,Humidity,HourlyPrecipIn,Conditions,Clouds,dailyrainin,SoftwareType,DateUTC
2013-05-17 00:02:00,33.0,31.0,-100.00,NNE,33,6.0,24.0,91,-99.99,,,-99.99,,2013-05-17 08:02:00,
2013-05-17 00:34:00,32.0,32.0,-100.00,NNE,32,4.0,21.0,99,-99.99,,,-99.99,,2013-05-17 08:34:00,
2013-05-17 00:43:00,32.0,32.0,-100.00,NNE,32,4.0,21.0,99,-99.99,,,-99.99,,2013-05-17 08:43:00,
2013-05-17 00:52:00,32.0,32.0,-100.00,NE,42,4.0,13.0,99,-99.99,,,-99.99,,2013-05-17 08:52:00,
2013-05-17 01:02:00,31.0,31.0,-100.00,NE,39,6.0,13.0,99,-99.99,,,-99.99,,2013-05-17 09:02:00,
2013-05-17 01:12:00,31.0,31.0,-100.00,NE,39,6.0,13.0,99,-99.99,,,-99.99,,2013-05-17 09:12:00,
2013-05-17 01:22:00,32.0,32.0,-100.00,NNE,28,0.0,0.0,100,-99.99,,,-99.99,,2013-05-17 09:22:00,
2013-05-17 01:33:00,31.0,31.0,-100.00,NNE,15,5.0,10.0,99,-99.99,,,-99.99,,2013-05-17 09:33:00,
2013-05-17 01:42:00,31.0,31.0,-100.00,NNE,15,5.0,10.0,99,-99.99,,,-99.99,,2013-05-17 09:42:00,
2013-05-17 01:53:00,31.0,31.0,-100.00,NNE,15,5.0,10.0,99,-99.99,,,-99.99,,2013-05-17 09:53:00,
2013-05-17 02:03:00,31.0,31.0,-100.00,NNW,346,2.0,19.0,99,-99.99,,,-99.99,,2013-05-17 10:03:00,
2013-05-17 02:12:00,31.0,31.0,-100.00,NNW,346,2.0,19.0,99,-99.99,,,-99.99,,2013-05-17 10:12:00,
2013-05-17 02:23:00,31.0,31.0,-100.00,NNW,346,2.0,16.0,99,-99.99,,,-99.99,,2013-05-17 10:23:00,
2013-05-17 02:32:00,31.0,31.0,-100.00,NNW,346,2.0,16.0,99,-99.99,,,-99.99,,2013-05-17 10:32:00,
2013-05-17 02:42:00,31.0,31.0,-100.00,NNW,346,2.0,16.0,99,-99.99,,,-99.99,,2013-05-17 10:42:00,
2013-05-17 02:53:00,31.0,31.0,-100.00,NNE,31,1.0,6.0,99,-99.99,,,-99.99,,2013-05-17 10:53:00,
2013-05-17 03:02:00,31.0,31.0,-100.00,NNE,27,4.0,12.0,99,-99.99,,,-99.99,,2013-05-17 11:02:00,
2013-05-17 03:12:00,31.0,31.0,-100.00,NNE,27,4.0,12.0,99,-99.99,,,-99.99,,2013-05-17 11:12:00,
2013-05-17 03:22:00,31.0,31.0,-100.00,NNE,27,4.0,12.0,99,-99.99,,,-99.99,,2013-05-17 11:22:00,
2013-05-17 03:33:00,31.0,31.0,-100.00,NNE,32,5.0,10.0,99,-99.99,,,-99.99,,2013-05-17 11:33:00,
2013-05-17 03:42:00,31.0,31.0,-100.00,NNE,32,5.0,10.0,99,-99.99,,,-99.99,,2013-05-17 11:42:00,
2013-05-17 03:53:00,31.0,31.0,-100.00,NNE,32,5.0,10.0,99,-99.99,,,-99.99,,2013-05-17 11:53:00,
2013-05-17 04:02:00,31.0,31.0,-100.00,NNE,32,5.0,10.0,99,-99.99,,,-99.99,,2013-05-17 12:02:00,
2013-05-17 04:23:00,31.0,31.0,-100.00,South,187,2.0,8.0,99,-99.99,,,-99.99,,2013-05-17 12:23:00,
2013-05-17 04:32:00,31.0,31.0,-100.00,NE,46,0.0,6.0,99,-99.99,,,-99.99,,2013-05-17 12:32:00,
2013-05-17 04:43:00,31.0,31.0,-100.00,NE,46,0.0,6.0,99,-99.99,,,-99.99,,2013-05-17 12:43:00,
2013-05-17 04:53:00,31.0,31.0,-100.00,NE,46,0.0,6.0,99,-99.99,,,-99.99,,2013-05-17 12:53:00,
2013-05-17 05:03:00,31.0,31.0,-100.00,NE,41,5.0,9.0,99,-99.99,,,-99.99,,2013-05-17 13:03:00,
2013-05-17 05:12:00,31.0,31.0,-100.00,NE,41,5.0,9.0,99,-99.99,,,-99.99,,2013-05-17 13:12:00,
2013-05-17 05:23:00,31.0,31.0,-100.00,NE,41,5.0,9.0,99,-99.99,,,-99.99,,2013-05-17 13:23:00,
2013-05-17 05:33:00,31.0,31.0,-100.00,NE,41,5.0,9.0,99,-99.99,,,-99.99,,2013-05-17 13:33:00,
2013-05-17 06:22:00,31.0,31.0,-100.00,North,10,4.0,10.0,99,-99.99,,,-99.99,,2013-05-17 14:22:00,
2013-05-17 06:34:00,31.0,31.0,-100.00,NNE,22,3.0,9.0,99,-99.99,,,-99.99,,2013-05-17 14:34:00,
2013-05-17 06:42:00,31.0,31.0,-100.00,NNE,22,3.0,9.0,99,-99.99,,,-99.99,,2013-05-17 14:42:00,
2013-05-17 06:53:00,31.0,31.0,-100.00,NE,48,2.0,6.0,99,-99.99,,,-99.99,,2013-05-17 14:53:00,
2013-05-17 07:03:00,31.0,31.0,-100.00,NNE,14,5.0,9.0,99,-99.99,,,-99.99,,2013-05-17 15:03:00,
2013-05-17 07:13:00,31.0,31.0,-100.00,NNE,14,5.0,9.0,99,-99.99,,,-99.99,,2013-05-17 15:13:00,
2013-05-17 07:25:00,31.0,31.0,-100.00,NNE,14,5.0,9.0,99,-99.99,,,-99.99,,2013-05-17 15:25:00,
2013-05-17 07:37:00,31.0,31.0,-100.00,NNE,14,5.0,9.0,99,-99.99,,,-99.99,,2013-05-17 15:37:00,
2013-05-17 07:57:00,32.0,32.0,-100.00,East,85,4.0,9.0,99,-99.99,,,-99.99,,2013-05-17 15:57:00,
2013-05-17 08:07:00,32.0,32.0,-100.00,North,8,2.0,5.0,99,-99.99,,,-99.99,,2013-05-17 16:07:00,
2013-05-17 08:13:00,32.0,32.0,-100.00,North,8,2.0,5.0,99,-99.99,,,-99.99,,2013-05-17 16:13:00,
2013-05-17 08:26:00,32.0,32.0,-100.00,North,8,2.0,5.0,99,-99.99,,,-99.99,,2013-05-17 16:26:00,
2013-05-17 08:37:00,31.0,31.0,-100.00,NE,50,2.0,6.0,99,-99.99,,,-99.99,,2013-05-17 16:37:00,
2013-05-17 08:49:00,31.0,31.0,-100.00,NE,50,2.0,6.0,99,-99.99,,,-99.99,,2013-05-17 16:49:00,
2013-05-17 08:52:00,32.0,32.0,-100.00,NNE,32,1.0,4.0,99,-99.99,,,-99.99,,2013-05-17 16:52:00,
2013-05-17 08:56:00,32.0,32.0,-100.00,SSW,194,1.0,5.0,99,-99.99,,,-99.99,,2013-05-17 16:56:00,
2013-05-17 09:08:00,32.0,32.0,-100.00,SSW,194,1.0,5.0,99,-99.99,,,-99.99,,2013-05-17 17:08:00,
2013-05-17 09:18:00,32.0,32.0,-100.00,SSW,194,1.0,5.0,99,-99.99,,,-99.99,,2013-05-17 17:18:00,
2013-05-17 09:29:00,32.0,32.0,-100.00,NNE,32,1.0,4.0,99,-99.99,,,-99.99,,2013-05-17 17:29:00,
2013-05-17 09:38:00,34.0,-99.9,-100.00,North,10,0.0,3.0,99,-99.99,,,-99.99,,2013-05-17 17:38:00,
2013-05-17 09:40:00,32.0,-99.9,-100.00,NNE,32,1.0,4.0,99,-99.99,,,-99.99,,2013-05-17 17:40:00,
2013-05-17 09:49:00,32.0,32.0,-100.00,NNE,32,1.0,4.0,99,-99.99,,,-99.99,,2013-05-17 17:49:00,
2013-05-17 10:08:00,34.0,34.0,-100.00,North,10,0.0,3.0,99,-99.99,,,-99.99,,2013-05-17 18:08:00,
2013-05-17 10:20:00,34.0,34.0,-100.00,North,10,0.0,3.0,99,-99.99,,,-99.99,,2013-05-17 18:20:00,
2013-05-17 10:30:00,34.0,34.0,-100.00,North,10,0.0,3.0,99,-99.99,,,-99.99,,2013-05-17 18:30:00,
2013-05-17 11:00:00,35.0,34.0,-100.00,WNW,294,0.0,2.0,97,-99.99,,,-99.99,,2013-05-17 19:00:00,
2013-05-17 11:10:00,35.0,34.0,-100.00,WNW,294,0.0,2.0,97,-99.99,,,-99.99,,2013-05-17 19:10:00,
2013-05-17 11:20:00,35.0,34.0,-100.00,WNW,294,0.0,2.0,97,-99.99,,,-99.99,,2013-05-17 19:20:00,
2013-05-17 11:21:00,33.0,33.0,-100.00,SW,235,1.0,4.0,99,-99.99,,,-99.99,,2013-05-17 19:21:00,
2013-05-17 11:30:00,33.0,33.0,-100.00,SW,234,1.0,3.0,99,-99.99,,,-99.99,,2013-05-17 19:30:00,
2013-05-17 11:40:00,33.0,33.0,-100.00,SW,231,1.0,4.0,99,-99.99,,,-99.99,,2013-05-17 19:40:00,
2013-05-17 11:50:00,33.0,33.0,-100.00,SW,231,1.0,4.0,99,-99.99,,,-99.99,,2013-05-17 19:50:00,
2013-05-17 12:00:00,33.0,-99.9,-100.00,SW,235,1.0,4.0,99,-99.99,,,-99.99,,2013-05-17 20:00:00,
2013-05-17 12:09:00,33.0,33.0,-100.00,SW,235,1.0,4.0,99,-99.99,,,-99.99,,2013-05-17 20:09:00,
2013-05-17 12:20:00,33.0,33.0,-100.00,SW,235,1.0,4.0,99,-99.99,,,-99.99,,2013-05-17 20:20:00,
2013-05-17 13:07:00,32.0,32.0,-100.00,SW,226,2.0,3.0,99,-99.99,,,-99.99,,2013-05-17 21:07:00,
2013-05-17 13:16:00,32.0,32.0,-100.00,SW,226,2.0,3.0,99,-99.99,,,-99.99,,2013-05-17 21:16:00,
2013-05-17 13:26:00,32.0,32.0,-100.00,SW,226,2.0,3.0,99,-99.99,,,-99.99,,2013-05-17 21:26:00,
2013-05-17 13:39:00,32.0,32.0,-100.00,SW,233,2.0,4.0,100,-99.99,,,-99.99,,2013-05-17 21:39:00,
2013-05-17 13:49:00,32.0,32.0,-100.00,SW,233,2.0,4.0,100,-99.99,,,-99.99,,2013-05-17 21:49:00,
2013-05-17 13:58:00,32.0,32.0,-100.00,SW,233,2.0,4.0,100,-99.99,,,-99.99,,2013-05-17 21:58:00,
2013-05-17 14:06:00,33.0,33.0,-100.00,SW,227,1.0,2.0,99,-99.99,,,-99.99,,2013-05-17 22:06:00,
2013-05-17 14:17:00,33.0,33.0,-100.00,SW,227,1.0,2.0,99,-99.99,,,-99.99,,2013-05-17 22:17:00,
2013-05-17 14:28:00,33.0,33.0,-100.00,SW,231,1.0,3.0,99,-99.99,,,-99.99,,2013-05-17 22:28:00,
2013-05-17 14:38:00,32.0,32.0,-100.00,SW,225,2.0,4.0,99,-99.99,,,-99.99,,2013-05-17 22:38:00,
2013-05-17 14:47:00,32.0,32.0,-100.00,SW,225,2.0,4.0,99,-99.99,,,-99.99,,2013-05-17 22:47:00,
2013-05-17 14:54:00,32.0,32.0,-100.00,SW,225,2.0,4.0,99,-99.99,,,-99.99,,2013-05-17 22:54:00,
2013-05-17 15:04:00,32.0,32.0,-100.00,SW,225,2.0,4.0,99,-99.99,,,-99.99,,2013-05-17 23:04:00,
2013-05-17 15:38:00,31.0,31.0,-100.00,SW,219,5.0,10.0,99,-99.99,,,-99.99,,2013-05-17 23:38:00,
2013-05-17 15:47:00,31.0,31.0,-100.00,SW,219,5.0,10.0,99,-99.99,,,-99.99,,2013-05-17 23:47:00,
2013-05-17 15:54:00,32.0,32.0,-100.00,SSW,211,3.0,8.0,99,-99.99,,,-99.99,,2013-05-17 23:54:00,
2013-05-17 16:02:00,32.0,32.0,-100.00,SW,219,3.0,5.0,99,-99.99,,,-99.99,,2013-05-18 00:02:00,
2013-05-17 16:14:00,32.0,32.0,-100.00,SW,219,3.0,5.0,99,-99.99,,,-99.99,,2013-05-18 00:14:00,
2013-05-17 16:21:00,32.0,32.0,-100.00,SW,214,2.0,5.0,99,-99.99,,,-99.99,,2013-05-18 00:21:00,
2013-05-17 16:33:00,32.0,32.0,-100.00,SW,224,2.0,4.0,99,-99.99,,,-99.99,,2013-05-18 00:33:00,
2013-05-17 16:44:00,32.0,32.0,-100.00,SW,224,2.0,4.0,99,-99.99,,,-99.99,,2013-05-18 00:44:00,
2013-05-17 16:54:00,32.0,32.0,-100.00,SW,224,2.0,4.0,99,-99.99,,,-99.99,,2013-05-18 00:54:00,
2013-05-17 17:02:00,32.0,31.0,-100.00,SW,225,2.0,5.0,97,-99.99,,,-99.99,,2013-05-18 01:02:00,
2013-05-17 17:13:00,32.0,31.0,-100.00,SW,225,2.0,5.0,97,-99.99,,,-99.99,,2013-05-18 01:13:00,
2013-05-17 17:24:00,32.0,31.0,-100.00,SW,225,2.0,5.0,97,-99.99,,,-99.99,,2013-05-18 01:24:00,
2013-05-17 17:31:00,32.0,31.0,-100.00,SW,225,2.0,5.0,97,-99.99,,,-99.99,,2013-05-18 01:31:00,
2013-05-17 17:52:00,32.0,31.0,-100.00,SW,228,2.0,4.0,97,-99.99,,,-99.99,,2013-05-18 01:52:00,
2013-05-17 18:02:00,32.0,32.0,-100.00,WSW,239,0.0,3.0,98,-99.99,,,-99.99,,2013-05-18 02:02:00,
2013-05-17 18:11:00,32.0,32.0,-100.00,WSW,239,0.0,3.0,98,-99.99,,,-99.99,,2013-05-18 02:11:00,
2013-05-17 18:22:00,32.0,32.0,-100.00,WSW,239,0.0,3.0,98,-99.99,,,-99.99,,2013-05-18 02:22:00,
2013-05-17 18:31:00,32.0,32.0,-100.00,WSW,239,0.0,3.0,98,-99.99,,,-99.99,,2013-05-18 02:31:00,
2013-05-17 18:53:00,33.0,31.0,-100.00,NNE,20,2.0,4.0,93,-99.99,,,-99.99,,2013-05-18 02:53:00,
2013-05-17 19:02:00,33.0,31.0,-100.00,NE,37,2.0,4.0,92,-99.99,,,-99.99,,2013-05-18 03:02:00,
2013-05-17 19:12:00,33.0,31.0,-100.00,NE,37,2.0,4.0,92,-99.99,,,-99.99,,2013-05-18 03:12:00,
2013-05-17 19:22:00,32.0,30.0,-100.00,NNE,31,3.0,5.0,92,-99.99,,,-99.99,,2013-05-18 03:22:00,
2013-05-17 19:32:00,32.0,30.0,-100.00,NNE,31,3.0,5.0,92,-99.99,,,-99.99,,2013-05-18 03:32:00,
2013-05-17 19:43:00,32.0,30.0,-100.00,NNE,31,3.0,5.0,92,-99.99,,,-99.99,,2013-05-18 03:43:00,
2013-05-17 19:53:00,30.0,29.0,-100.00,NNE,32,5.0,12.0,95,-99.99,,,-99.99,,2013-05-18 03:53:00,
2013-05-17 20:02:00,29.0,28.0,-100.00,NNE,30,8.0,13.0,97,-99.99,,,-99.99,,2013-05-18 04:02:00,
2013-05-17 20:12:00,29.0,28.0,-100.00,NNE,30,8.0,13.0,97,-99.99,,,-99.99,,2013-05-18 04:12:00,
2013-05-17 20:22:00,29.0,28.0,-100.00,NNE,30,8.0,13.0,97,-99.99,,,-99.99,,2013-05-18 04:22:00,
2013-05-17 20:32:00,29.0,29.0,-100.00,NNE,29,8.0,13.0,99,-99.99,,,-99.99,,2013-05-18 04:32:00,
2013-05-17 20:43:00,29.0,29.0,-100.00,NNE,29,8.0,13.0,99,-99.99,,,-99.99,,2013-05-18 04:43:00,
2013-05-17 20:52:00,29.0,29.0,-100.00,NNE,26,6.0,13.0,99,-99.99,,,-99.99,,2013-05-18 04:52:00,
2013-05-17 21:02:00,28.0,28.0,-100.00,NNE,26,9.0,14.0,99,-99.99,,,-99.99,,2013-05-18 05:02:00,
2013-05-17 21:12:00,28.0,28.0,-100.00,NNE,26,9.0,14.0,99,-99.99,,,-99.99,,2013-05-18 05:12:00,
2013-05-17 21:21:00,27.0,27.0,-100.00,NNE,28,12.0,21.0,99,-99.99,,,-99.99,,2013-05-18 05:21:00,
2013-05-17 21:22:00,28.0,28.0,-100.00,NNE,26,9.0,14.0,99,-99.99,,,-99.99,,2013-05-18 05:22:00,
2013-05-17 21:31:00,28.0,28.0,-100.00,NNE,29,9.0,17.0,99,-99.99,,,-99.99,,2013-05-18 05:31:00,
2013-05-17 21:42:00,28.0,28.0,-100.00,NNE,29,9.0,17.0,99,-99.99,,,-99.99,,2013-05-18 05:42:00,
2013-05-17 21:52:00,27.0,27.0,-100.00,NNE,28,12.0,21.0,99,-99.99,,,-99.99,,2013-05-18 05:52:00,
2013-05-17 22:02:00,27.0,27.0,-100.00,NNE,28,12.0,21.0,99,-99.99,,,-99.99,,2013-05-18 06:02:00,
2013-05-17 22:11:00,27.0,27.0,-100.00,NNE,28,12.0,21.0,99,-99.99,,,-99.99,,2013-05-18 06:11:00,
2013-05-17 22:21:00,26.0,26.0,-100.00,NNE,23,13.0,20.0,99,-99.99,,,-99.99,,2013-05-18 06:21:00,
2013-05-17 22:52:00,26.0,26.0,-100.00,NNE,23,13.0,20.0,99,-99.99,,,-99.99,,2013-05-18 06:52:00,
2013-05-17 23:01:00,26.0,26.0,-100.00,NNE,23,13.0,20.0,99,-99.99,,,-99.99,,2013-05-18 07:01:00,
2013-05-17 23:11:00,26.0,26.0,-100.00,NNE,23,13.0,20.0,99,-99.99,,,-99.99,,2013-05-18 07:11:00,
2013-05-17 23:52:00,32.0,32.0,-100.00,NNE,30,13.0,23.0,98,-99.99,,,-99.99,,2013-05-18 07:52:00,